EW3751 Weather Reports


time (UTC)temp
C
wind
direction
speed
KPH
gust
KPH
rain 1hr
cm
rain 24hr
cm
rain mn
cm
humidity
%
barometer
mb
20260507093716 7 43 6.4 17.7 0.00 25.37 16.92 97 1013.4
20260507093204 7 353 6.4 17.7 0.00 25.37 16.92 97 1013.3
20260507091704 7 45 8.0 17.7 0.00 2.82 16.92 97 1013.1
20260507091218 7 45 4.8 17.7 0.00 2.82 16.92 97 1013.0
20260507085707 7 33 12.9 16.1 0.00 2.82 16.92 97 1012.9
20260507085204 7 23 8.0 16.1 0.00 2.82 16.92 97 1012.8
20260507084206 7 358 8.0 17.7 0.00 2.82 16.92 97 1012.7
20260507082706 7 85 4.8 17.7 0.00 2.82 16.92 98 1012.6
20260507082205 7 25 4.8 17.7 0.00 2.82 16.92 98 1012.5
20260507081704 7 13 3.2 17.7 0.00 2.82 16.92 97 1012.5
20260507081209 7 85 4.8 17.7 0.00 2.82 16.92 97 1012.4
20260507080706 7 45 6.4 17.7 0.00 2.82 16.92 97 1012.3
20260507080206 7 38 9.7 17.7 0.00 2.82 16.92 98 1012.3
20260507075704 7 95 8.0 17.7 0.00 2.82 16.92 98 1012.3
20260507075204 7 43 3.2 17.7 0.00 2.82 16.92 98 1012.2
20260507073704 7 85 4.8 19.3 0.00 2.82 16.92 98 1012.0
20260507073213 7 25 8.0 19.3 0.00 2.82 16.92 99 1012.0
20260507072706 7 63 12.9 19.3 0.00 2.82 16.92 99 1012.0
20260507071705 7 43 14.5 19.3 0.00 2.82 16.92 99 1011.9
20260507071208 7 38 12.9 20.9 0.00 2.82 16.92 99 1011.7
20260507070706 7 25 8.0 20.9 0.00 2.82 16.92 99 1011.7
20260507070204 7 55 8.0 20.9 0.00 2.82 16.92 99 1011.7
20260507065704 7 73 8.0 20.9 0.00 2.82 16.92 99 1011.7
20260507065206 7 43 17.7 16.1 0.00 2.82 16.92 99 1011.5
20260507064705 7 38 6.4 16.1 0.00 2.82 16.92 99 1011.5
20260507063705 7 353 3.2 24.1 2.82 2.82 16.92 99 1011.4
20260507063206 7 55 9.7 24.1 2.82 2.82 16.92 100 1011.3
20260507062707 7 43 24.1 22.5 2.82 2.82 16.92 100 1011.3
20260507062204 7 353 4.8 22.5 2.82 2.82 16.92 100 1011.1
20260507061705 7 43 9.7 22.5 2.82 2.82 16.92 100 1011.0
20260507061226 7 25 11.3 22.5 2.82 2.82 16.92 100 1011.1
20260507060705 7 23 12.9 22.5 2.82 2.82 16.92 100 1010.9
20260507060206 7 43 14.5 17.7 2.82 2.82 16.92 100 1010.9
20260507055705 7 55 9.7 16.1 2.82 2.82 16.92 100 1010.9
20260507055204 7 13 6.4 16.1 2.82 2.82 16.92 100 1010.8
20260507054210 7 85 3.2 19.3 0.00 25.37 14.10 100 1010.5
20260507053704 7 358 11.3 19.3 0.00 25.37 14.10 100 1010.6
20260507052705 7 25 8.0 19.3 0.00 25.37 14.10 100 1010.5
20260507052209 7 25 6.4 19.3 2.82 25.37 14.10 100 1010.3
20260507051706 7 18 6.4 19.3 2.82 25.37 14.10 100 1010.4
20260507051205 7 23 4.8 20.9 2.82 25.37 14.10 100 1010.2
20260507050704 7 65 11.3 20.9 2.82 25.37 14.10 100 1010.3
20260507050221 7 73 6.4 20.9 2.82 25.37 14.10 100 1010.2
20260507045705 6 33 12.9 20.9 2.82 25.37 14.10 100 1010.2
20260507045204 6 25 8.0 20.9 2.82 25.37 14.10 100 1010.1
20260507044705 6 43 4.8 20.9 2.82 25.37 14.10 100 1010.1
20260507044204 6 55 9.7 20.9 2.82 25.37 14.10 99 1010.0
20260507043706 6 33 6.4 20.9 2.82 25.37 14.10 99 1010.1
20260507043205 6 93 6.4 20.9 2.82 25.37 14.10 99 1010.0
20260507042705 6 45 4.8 19.3 2.82 25.37 14.10 99 1009.9
20260507042207 7 83 8.0 19.3 0.00 22.56 11.28 99 1009.9
20260507041205 7 33 9.7 19.3 0.00 22.56 11.28 99 1009.8
20260507040705 7 23 8.0 19.3 0.00 22.56 11.28 99 1009.9
20260507040205 7 63 12.9 19.3 0.00 22.56 11.28 99 1009.9
20260507034704 7 18 8.0 19.3 0.00 22.56 11.28 99 1009.8
20260507034204 7 25 11.3 22.5 0.00 22.56 11.28 99 1009.6
20260507033706 7 65 19.3 22.5 0.00 22.56 11.28 99 1009.6
20260507033205 7 0 6.4 22.5 0.00 22.56 11.28 99 1009.6
20260507032706 7 83 1.6 22.5 0.00 22.56 11.28 99 1009.5
20260507032205 7 358 4.8 22.5 0.00 22.56 11.28 99 1009.5
20260507031706 7 343 6.4 22.5 0.00 22.56 11.28 99 1009.4
20260507030705 7 43 14.5 27.4 0.00 22.56 11.28 99 1009.4
20260507030205 7 23 11.3 27.4 0.00 22.56 11.28 99 1009.4
20260507025708 7 0 16.1 27.4 0.00 22.56 11.28 99 1009.4
20260507024704 7 343 9.7 27.4 0.00 22.56 11.28 99 1009.2
20260507024204 7 23 9.7 27.4 0.00 22.56 11.28 99 1009.2
20260507023727 7 45 16.1 24.1 0.00 22.56 11.28 99 1009.0
20260507023205 7 25 6.4 24.1 0.00 22.56 11.28 99 1009.1
20260507022705 7 25 9.7 22.5 0.00 22.56 11.28 99 1009.1
20260507021705 8 25 6.4 22.5 0.00 22.56 11.28 99 1008.9
20260507021204 8 345 4.8 22.5 0.00 22.56 11.28 99 1008.9
20260507020706 8 85 3.2 22.5 0.00 22.56 11.28 99 1008.8
20260507020204 8 65 8.0 22.5 0.00 22.56 11.28 99 1008.7
20260507015205 8 43 14.5 17.7 0.00 22.56 11.28 100 1008.6
20260507014704 8 43 4.8 17.7 0.00 22.56 11.28 100 1008.6
20260507014210 8 8 8.0 24.1 0.00 22.56 11.28 99 1008.6
20260507013204 8 8 6.4 24.1 0.00 22.56 11.28 99 1008.4
20260507012705 8 38 16.1 24.1 2.82 22.56 11.28 99 1008.3
20260507012206 8 73 9.7 24.1 2.82 22.56 11.28 99 1008.3
20260507011704 8 13 14.5 24.1 2.82 22.56 11.28 99 1008.3
20260507011205 8 33 8.0 22.5 2.82 22.56 11.28 99 1008.3
20260507010704 8 43 12.9 20.9 2.82 22.56 11.28 99 1008.3
20260507005204 8 55 8.0 20.9 5.64 22.56 11.28 99 1008.1
20260507004706 8 345 6.4 17.7 5.64 22.56 11.28 100 1008.1
20260507003704 8 13 9.7 20.9 5.64 22.56 11.28 99 1008.1
20260507003205 8 23 11.3 20.9 2.82 19.74 8.46 99 1008.0
20260507002705 8 23 9.7 20.9 5.64 19.74 8.46 99 1007.9
20260507001705 8 38 8.0 20.9 5.64 19.74 8.46 99 1007.9
20260507001204 8 8 6.4 20.9 5.64 19.74 8.46 99 1007.9
20260507000726 8 25 9.7 19.3 5.64 19.74 8.46 99 1007.8
20260507000206 8 358 3.2 17.7 5.64 19.74 8.46 99 1007.9
20260506235704 8 43 6.4 17.7 2.82 16.92 5.64 99 1007.8
20260506234705 8 63 9.7 17.7 2.82 19.74 5.64 99 1007.8
20260506234206 8 43 9.7 19.3 2.82 19.74 5.64 99 1007.8
20260506233704 8 33 11.3 19.3 2.82 19.74 5.64 99 1007.8
20260506233205 8 25 4.8 19.3 0.00 16.92 2.82 99 1007.8
20260506232704 8 25 12.9 19.3 0.00 16.92 2.82 99 1007.8
20260506232207 8 78 9.7 19.3 0.00 16.92 2.82 99 1007.8
20260506231705 8 18 12.9 19.3 0.00 16.92 2.82 99 1007.8
20260506230704 8 33 14.5 20.9 0.00 16.92 2.82 99 1007.6
20260506230205 8 73 8.0 20.9 2.82 16.92 2.82 99 1007.6
20260506225205 8 43 6.4 20.9 2.82 16.92 2.82 99 1007.6
20260506224705 8 43 11.3 20.9 2.82 16.92 2.82 99 1007.5
20260506224204 8 38 6.4 27.4 2.82 16.92 2.82 99 1007.6
20260506223704 8 55 12.9 27.4 2.82 16.92 2.82 99 1007.6
20260506222706 9 43 6.4 27.4 2.82 16.92 2.82 99 1007.6
20260506222204 9 43 4.8 27.4 2.82 16.92 2.82 99 1007.5
20260506220706 9 23 12.9 24.1 0.00 14.10 0.00 99 1007.4
20260506220204 9 53 8.0 24.1 0.00 14.10 14.10 99 1007.4
20260506215704 9 8 11.3 24.1 0.00 14.10 14.10 99 1007.4
20260506215207 9 125 6.4 24.1 0.00 14.10 14.10 99 1007.4
20260506214704 9 358 8.0 24.1 0.00 16.92 14.10 99 1007.4
20260506214204 9 53 4.8 25.7 0.00 16.92 14.10 99 1007.4
20260506213705 9 345 3.2 25.7 0.00 16.92 14.10 99 1007.2
20260506213206 9 18 8.0 25.7 0.00 16.92 14.10 99 1007.1
20260506212705 9 33 12.9 25.7 0.00 16.92 14.10 99 1007.0
20260506211706 10 43 8.0 25.7 0.00 16.92 14.10 99 1007.0
20260506211205 10 23 9.7 25.7 0.00 16.92 14.10 99 1006.9
20260506210704 10 23 9.7 25.7 0.00 16.92 14.10 99 1007.0
20260506210205 10 63 8.0 24.1 0.00 16.92 14.10 99 1006.9
20260506205204 10 25 14.5 24.1 0.00 16.92 14.10 99 1006.7
20260506204705 10 63 6.4 24.1 0.00 16.92 14.10 99 1006.7
20260506204205 10 38 14.5 24.1 0.00 16.92 14.10 99 1006.6
20260506203705 10 25 16.1 20.9 0.00 16.92 14.10 99 1006.7
20260506203206 10 0 12.9 20.9 0.00 16.92 14.10 99 1006.7
20260506202705 10 53 11.3 20.9 0.00 16.92 14.10 99 1006.6
20260506202205 10 55 11.3 20.9 0.00 16.92 14.10 99 1006.6
20260506201707 10 45 9.7 19.3 0.00 16.92 14.10 99 1006.5
20260506201204 10 33 9.7 19.3 0.00 16.92 14.10 99 1006.5
20260506200206 10 85 8.0 19.3 0.00 16.92 14.10 99 1006.5
20260506195204 10 45 9.7 17.7 0.00 16.92 14.10 99 1006.4
20260506194705 10 63 12.9 17.7 0.00 16.92 14.10 99 1006.5
20260506194224 10 43 9.7 22.5 0.00 16.92 14.10 99 1006.5
20260506193704 10 45 9.7 22.5 0.00 16.92 14.10 99 1006.5
20260506193206 10 83 9.7 22.5 0.00 16.92 14.10 99 1006.4
20260506192704 10 33 8.0 22.5 0.00 16.92 14.10 99 1006.5
20260506192204 10 55 8.0 22.5 0.00 16.92 14.10 99 1006.3
20260506191706 10 38 8.0 22.5 0.00 16.92 14.10 99 1006.3
20260506191204 10 43 14.5 27.4 0.00 16.92 14.10 99 1006.3
20260506190706 10 83 11.3 27.4 0.00 16.92 14.10 99 1006.2
20260506190205 10 53 12.9 27.4 0.00 16.92 14.10 99 1006.1
20260506185705 10 85 14.5 27.4 0.00 16.92 14.10 99 1006.1
20260506185204 10 55 12.9 27.4 0.00 16.92 14.10 99 1006.0
20260506184204 10 65 25.7 27.4 0.00 16.92 14.10 99 1005.9
20260506183705 10 65 4.8 27.4 0.00 16.92 14.10 99 1005.8
20260506183206 10 25 6.4 27.4 0.00 16.92 14.10 99 1005.8
20260506182704 10 53 12.9 27.4 0.00 16.92 14.10 99 1005.7
20260506182204 10 63 14.5 27.4 0.00 16.92 14.10 99 1005.8
20260506181706 10 63 14.5 27.4 0.00 16.92 14.10 99 1005.8
20260506181205 10 65 8.0 27.4 0.00 16.92 14.10 99 1005.8
20260506180704 10 95 6.4 27.4 2.82 16.92 14.10 99 1005.8
20260506180206 11 38 11.3 20.9 2.82 16.92 14.10 99 1005.8
20260506175704 11 55 11.3 20.9 2.82 16.92 14.10 99 1005.7
20260506175204 11 13 11.3 16.1 2.82 16.92 14.10 99 1005.7
20260506174706 11 133 9.7 12.9 2.82 16.92 14.10 99 1005.7
20260506174204 11 18 4.8 12.9 2.82 16.92 14.10 99 1005.8
20260506173704 11 25 6.4 12.9 2.82 16.92 14.10 99 1005.9
20260506173206 11 0 8.0 12.9 2.82 16.92 14.10 99 1005.9
20260506172704 11 63 4.8 12.9 2.82 19.74 14.10 99 1005.9
20260506171705 11 0 6.4 9.7 2.82 19.74 14.10 99 1005.7
20260506170204 11 43 3.2 14.5 0.00 16.92 11.28 99 1005.5
20260506165704 11 38 3.2 14.5 0.00 16.92 11.28 99 1005.6
20260506165204 11 23 3.2 14.5 0.00 16.92 11.28 99 1005.5
20260506164707 11 65 4.8 14.5 0.00 16.92 11.28 99 1005.4
20260506164204 11 33 3.2 12.9 2.82 16.92 11.28 99 1005.4
20260506163705 11 8 6.4 12.9 2.82 16.92 11.28 99 1005.4
20260506163207 11 18 4.8 12.9 2.82 16.92 11.28 99 1005.4
20260506162704 11 45 4.8 12.9 2.82 16.92 11.28 99 1005.4
20260506161705 11 8 8.0 12.9 2.82 16.92 11.28 98 1005.3
20260506161211 11 0 8.0 16.1 2.82 16.92 11.28 98 1005.4
20260506160706 11 8 4.8 16.1 2.82 16.92 11.28 99 1005.3
20260506160225 11 25 3.2 16.1 2.82 16.92 11.28 99 1005.2
20260506155704 11 8 6.4 16.1 2.82 16.92 11.28 98 1005.2
20260506155204 11 78 9.7 16.1 2.82 16.92 11.28 98 1005.3
20260506154706 11 25 6.4 16.1 2.82 16.92 11.28 98 1005.3
20260506154204 11 63 12.9 19.3 0.00 14.10 8.46 98 1005.5
20260506153704 11 43 6.4 19.3 0.00 14.10 8.46 98 1005.6
20260506152706 11 65 4.8 19.3 0.00 14.10 8.46 98 1005.6
20260506152205 11 55 12.9 19.3 0.00 14.10 8.46 98 1005.5
20260506151705 11 0 11.3 19.3 0.00 14.10 8.46 98 1005.6
20260506151204 11 18 4.8 19.3 0.00 14.10 8.46 98 1005.6
20260506150705 11 63 9.7 19.3 0.00 14.10 8.46 98 1005.6
20260506150204 11 38 9.7 16.1 0.00 14.10 8.46 98 1005.6
20260506145707 11 73 9.7 16.1 0.00 14.10 8.46 98 1005.6
20260506144704 11 45 8.0 16.1 0.00 14.10 8.46 98 1005.5
20260506144204 11 83 8.0 17.7 0.00 14.10 8.46 98 1005.4
20260506143705 10 83 9.7 17.7 0.00 14.10 8.46 98 1005.4
20260506143204 10 93 9.7 17.7 0.00 14.10 8.46 98 1005.4
20260506142705 10 325 6.4 17.7 0.00 14.10 8.46 98 1005.5
20260506142204 10 53 11.3 17.7 0.00 14.10 8.46 98 1005.5
20260506141706 10 25 8.0 17.7 0.00 14.10 8.46 98 1005.6
20260506141204 10 38 6.4 17.7 0.00 14.10 8.46 98 1005.6
20260506140704 10 78 3.2 17.7 0.00 14.10 8.46 98 1005.6
20260506140204 10 13 6.4 17.7 0.00 14.10 8.46 98 1005.7
20260506135706 10 18 3.2 16.1 0.00 14.10 8.46 98 1005.6
20260506135204 10 0 3.2 16.1 0.00 14.10 8.46 98 1005.6
20260506134704 10 65 8.0 16.1 0.00 14.10 8.46 98 1005.6
20260506134206 10 73 11.3 16.1 0.00 14.10 8.46 98 1005.6
20260506133704 10 43 6.4 16.1 0.00 14.10 8.46 98 1005.6
20260506132704 10 45 8.0 16.1 0.00 14.10 8.46 98 1005.6
20260506132206 10 23 6.4 16.1 0.00 14.10 8.46 98 1005.6
20260506131706 10 38 14.5 16.1 0.00 14.10 8.46 98 1005.5
20260506130206 10 83 4.8 16.1 0.00 14.10 8.46 98 1005.6
20260506125704 10 65 4.8 16.1 0.00 14.10 8.46 98 1005.5
20260506125204 10 103 4.8 16.1 0.00 14.10 8.46 98 1005.5
20260506124706 10 33 11.3 14.5 0.00 14.10 8.46 98 1005.4
20260506124205 10 73 11.3 14.5 0.00 14.10 8.46 98 1005.5
20260506123704 10 25 9.7 14.5 0.00 14.10 8.46 98 1005.5
20260506123206 10 8 6.4 14.5 0.00 14.10 8.46 98 1005.6
20260506122705 10 53 11.3 14.5 0.00 14.10 8.46 98 1005.6
20260506122204 10 43 4.8 14.5 0.00 14.10 8.46 98 1005.5
20260506121705 10 23 3.2 14.5 0.00 14.10 8.46 98 1005.6
20260506121205 10 78 6.4 17.7 0.00 14.10 8.46 98 1005.5
20260506120706 10 43 3.2 17.7 0.00 14.10 8.46 98 1005.4
20260506115206 10 25 6.4 16.1 0.00 14.10 8.46 98 1005.4
20260506114704 10 83 4.8 16.1 0.00 14.10 8.46 98 1005.3
20260506114209 10 43 9.7 17.7 0.00 14.10 8.46 98 1005.3
20260506113706 10 358 6.4 17.7 0.00 14.10 8.46 98 1005.4
20260506113204 10 73 11.3 17.7 0.00 14.10 8.46 98 1005.4
20260506112707 10 13 4.8 17.7 0.00 14.10 8.46 98 1005.5
20260506112207 10 38 4.8 17.7 0.00 14.10 8.46 98 1005.4
20260506111704 10 53 3.2 16.1 0.00 14.10 8.46 98 1005.5
20260506111204 10 55 11.3 17.7 0.00 14.10 8.46 98 1005.5
20260506110705 10 53 11.3 17.7 0.00 14.10 8.46 99 1005.5
20260506110223 10 38 6.4 17.7 0.00 14.10 8.46 99 1005.4
20260506105704 10 65 16.1 17.7 2.82 14.10 8.46 99 1005.3
20260506105215 10 55 9.7 17.7 2.82 14.10 8.46 99 1005.3
20260506104705 9 65 12.9 17.7 2.82 14.10 8.46 99 1005.3
20260506104211 9 55 9.7 17.7 2.82 14.10 8.46 99 1005.4
20260506103205 9 38 9.7 17.7 2.82 14.10 8.46 99 1005.3
20260506102704 9 93 6.4 17.7 5.64 14.10 8.46 99 1005.4
20260506102211 9 18 8.0 17.7 5.64 14.10 8.46 99 1005.3
20260506101704 9 85 6.4 17.7 5.64 14.10 8.46 99 1005.3
20260506101204 9 45 11.3 17.7 5.64 14.10 8.46 99 1005.4
20260506100704 9 53 11.3 17.7 5.64 14.10 8.46 99 1005.4
20260506100231 9 13 9.7 17.7 5.64 14.10 8.46 99 1005.4
20260506095704 9 45 12.9 17.7 2.82 11.28 5.64 99 1005.3
20260506095206 9 53 6.4 17.7 2.82 11.28 5.64 99 1005.4
20260506094704 9 343 8.0 17.7 2.82 11.28 5.64 99 1005.3